SCP
0 0 0 0 0 0 0 0 0 -0 0 0 0 0 0 0 -0 0 0 0 0 0 0 0 0 0 0 0 0 0 0 0 0 0 0 0 0 0 0 0 0 0 0 0 0 0 0 0 0 0 0 0 0 0
0 0 0 0 0 0 0 0 0 0 0 0 0 0 0 0 0 0 0 0 0 0 0 -0 0 0 0 0 0 0 0 0 0 0 0 0 0 0 0 0 0 0 0 -0 0 0 0 0 0 0 0 0 0 0
0 0 0 0 0 0 0 0 0 0 0 0 -0 -0 -0 0 0 0 0 0 0 -0 0 0 0 0 0 0 0 0 0 0 0 0 0 0 0 0 0 0 0 0 0 0 -0 0 0 0 0 0 0 0 0 0
0 0 0 -0 0 0 0 0 0 0 0 0 -0 0 0 0 0 -0 0 0 0 0 0 0 0 0 0 0 0 0 0 0 0 0 0 0 0 0 0 0 0 0 0 0 0 0 0 0 0 0 0 0 0 0
-0 0 0 0 0 0 0 0 0 0 0 0 -0 0 0 0 0 -0 0 0 0 0 0 0 0 0 0 0 0 0 0 0 0 0 0 0 0 0 0 0 0 0 0 0 0 0 0 0 0 0 0 0 0 0
-0 0 0 0 0 0 0 0 0 0 0 -0 -0 0 0 0 -0 -0 0 0 0 0 0 0 0 0 0 0 0 0 0 0 0 0 0 0 0 0 0 0 0 0 0 0 0 0 0 0 0 0 0 0 0 0
0 -0 0 0 0 0 0 -0 0 0 0 -0 0 0 0 0 -0 -0 0 0 0 0 0 0 0 0 0 0 0 0 0 0 0 0 0 0 0 0 0 0 0 0 0 0 0 0 0 0 0 0 0 0 0 0
-0 0 0 0 0 -0 -0 0 -0 -0 -0 0 0 0 0 0 0 0 0 0 -0 0 0 0 0 0 0 0 0 0 0 0 0 0 0 0 0 0 0 0 0 0 0 0 0 0 0 0 0 0 0 0 0 0
0 -0 0 0 -0 -0 -0 -0 -0 0 0 0 0 0 0 0 0 0 0 -0 0 0 0 0 0 0 0 0 0 0 0 0 0 0 0 0 0 0 0 0 0 0 0 0 0 0 0 0 0 0 0 0 0 0
-0 0 -0 -0 -0 0 -0 -0 0 0 0 0 0 0 0 0 0 0 0 0 0 0 0 0 0 0 0 0 0 0 0 0 0 0 0 0 0 0 0 0 0 0 0 0 0 0 0 0 0 0 0 0 0 0
0 0 0 0 0 -0 0 0 0 0 0 0 0 0 0 0 0 0 0 0 0 0 0 0 0 0 0 0 0 0 0 0 0 0 0 0 0 0 0 0 0 0 0 0 0 0 -0 -0 0 0 0 0 0 0
0 0 0 0 0 0 0 0 0 0 0 0 0 0 0 0 0 0 0 0 0 0 0 0 0 0 0 0 0 0 0 0 0 0 0 0 0 0 0 0 0 0 0 0 0 0 0 0 0 0 0 0 0 0
0 0 0 0 0 0 0 0 0 0 0 0 0 0 0 0 0 0 0 0 0 0 0 0 0 0 0 0 0 0 0 0 0 0 0 0 0 0 0 0 0 0 0 0 0 0 0 0 0 0 0 0 0 0
0 0 0 0 0 0 0 0 0 0 0 0 0 0 0 0 0 0 0 0 0 0 0 0 0 0 0 0 0 0 0 0 0 0 0 0 0 0 0 0 0 0 0 0 0 0 0 0 0 0 0 0 0 0
0 0 0 0 0 0 0 0 0 0 0 0 0 0 0 0 0 0 0 0 0 0 0 0 0 0 0 0 0 0 0 0 0 0 0 0 0 0 0 0 0 0 0 0 0 0 0 0 0 0 0 0 0 0
0 0 0 0 0 0 0 0 0 0 0 0 0 0 0 0 0 0 0 0 0 0 0 0 0 0 0 0 0 0 0 0 0 0 0 0 0 0 0 0 0 0 0 0 0 0 0 0 0 0 0 0 0 0
0 0 0 0 0 0 0 0 0 0 0 0 0 0 0 0 0 0 0 0 0 0 0 0 0 0 0 0 0 0 0 0 0 0 0 0 0 0 0 0 0 0 0 -0 -0 0 0 0 0 0 0 0 0 0
0 0 0 0 0 0 0 0 0 0 0 0 0 0 0 0 0 0 0 0 0 0 0 0 0 0 0 0 0 0 0 0 0 0 0 0 0 0 0 0 0 0 -0 -0 -0 0 0 0 0 0 0 0 0 0
0 0 0 0 0 0 0 0 0 0 0 0 0 0 0 0 0 0 0 0 0 0 0 0 0 0 0 0 0 0 0 0 0 0 0 0 0 0 0 0 0 0 0 0 0 0 0 0 0 0 -0 0 0 0
0 0 0 0 0 0 0 0 0 0 0 0 0 0 0 0 0 0 0 0 0 0 0 0 0 0 0 0 0 0 0 0 0 0 0 0 0 0 0 0 0 0 0 0 0 0 0 0 0 -0 -0 -0 0 0
0 0 0 0 0 -0 0 0 0 0 0 0 0 0 0 0 0 0 0 0 0 0 0 0 0 0 0 0 0 0 0 0 0 0 0 0 0 0 0 0 0 0 0 0 0 0 0 0 0 0 0 0 0 0
0 0 0 0 0 0 0 0 0 0 0 0 0 0 0 0 0 0 0 0 0 0 0 0 0 -0 0 0 0 0 -0 -0 0 0 0 0 0 0 0 0 0 0 0 0 0 0 0 0 0 0 0 0 0 0
0 0 0 0 0 0 0 0 0 0 0 0 0 0 0 0 0 0 0 0 0 0 0 0 -0 -0 -0 -0 -0 -0 -0 -0 -0 -0 -0 -0 -0 0 0 0 0 0 0 0 0 0 0 0 0 0 0 0 0 0
0 0 0 0 0 0 0 0 0 0 0 0 0 0 0 0 0 0 0 0 0 0 0 0 0 0 0 -0 -0 -0 -0 -0 -0 -0 -0 -0 0 0 0 0 0 0 0 0 0 0 0 0 0 0 0 0 0 0
0 0 0 0 0 0 0 0 0 0 0 0 0 0 0 0 0 0 0 0 0 0 0 0 0 0 0 0 0 0 -0 -0 -0 -0 -0 -0 0 0 0 0 0 0 0 0 0 0 0 0 0 0 0 0 0 0
0 0 0 0 0 0 0 0 0 0 0 0 0 0 0 0 0 0 0 0 0 0 0 0 0 -0 -0 -0 -0 -0 -0 -0 0 0 0 0 0 0 0 0 0 0 0 0 0 0 0 0 0 0 0 0 0 0
0 0 0 0 0 0 0 0 0 0 0 0 0 0 0 0 0 0 0 0 0 0 0 0 0 0 -0 -0 0 -0 0 0 0 0 0 0 0 0 0 0 0 0 0 0 0 0 0 0 0 0 0 0 0 0
0 0 0 0 0 0 0 0 0 0 0 0 0 0 0 0 0 0 0 0 0 0 0 0 0 0 0 0 -0 -0 -0 0 0 0 0 0 0 0 0 0 0 0 0 0 0 0 0 0 0 0 0 0 0 0
0 0 0 0 0 0 0 0 0 0 0 0 0 0 -0 -0 0 0 0 0 0 -0 0 0 0 0 0 0 -0 -0 -0 0 0 0 0 0 0 0 0 0 0 0 0 0 0 0 0 0 0 0 0 0 0 0
0 0 0 0 0 0 0 0 0 0 0 0 0 0 0 0 0 0 0 0 0 0 0 -0 -0 -0 -0 -0 -0 -0 0 0 0 0 0 0 0 0 0 0 0 0 0 0 0 0 0 0 0 0 0 0 0 0
0 0 0 0 0 0 0 0 0 0 0 0 0 0 0 0 0 0 0 0 0 0 0 0 0 -0 -0 -0 -0 0 0 0 0 0 0 0 0 0 0 0 0 0 0 0 0 0 0 0 0 0 0 0 0 0
0 0 0 0 0 0 0 0 0 0 0 0 0 0 0 0 0 0 0 0 0 -0 -0 0 0 -0 -0 0 0 0 0 0 0 0 0 0 0 0 0 0 0 0 0 0 0 0 0 0 0 0 0 0 0 0
0 0 0 0 0 0 0 0 0 0 0 0 0 0 0 0 0 -0 0 0 0 0 0 0 0 0 0 0 0 0 0 0 0 0 0 0 0 0 0 0 0 0 0 0 0 0 0 0 0 0 0 0 0 0
Wind_Speed_500mb
56 53 52 53 49 48 46 45 40 38 34 33 33 34 31 26 20 30 30 22 29 21 56 64 59 41 33 21 6 18 20 5 6 5 3 3 5 3 6 4 25 13 3 4 7 6 1 30 10 10 4 21 46 45
52 52 49 48 49 46 43 36 35 34 36 34 31 31 27 24 24 29 31 20 27 29 38 41 64 58 56 48 34 18 11 13 4 2 4 5 2 3 3 6 8 12 13 7 2 5 10 28 8 18 21 49 68 68
51 51 51 49 43 37 34 34 34 32 30 27 27 25 24 21 23 24 26 27 25 31 63 63 63 16 26 35 41 20 13 8 6 23 7 5 4 4 3 2 7 11 2 10 9 7 13 35 30 41 54 57 56 60
51 47 47 43 38 30 27 32 32 27 28 25 21 20 18 21 22 27 27 24 15 13 11 19 21 29 15 28 34 55 46 27 36 39 12 6 1 3 4 4 4 4 6 11 10 6 9 22 26 29 48 54 54 48
52 49 43 38 29 22 27 26 18 21 25 18 17 15 14 12 16 22 29 30 24 17 9 30 60 6 8 20 21 28 43 47 26 9 7 5 0 3 3 6 8 9 3 6 11 22 21 22 30 25 45 51 46 36
53 42 35 24 18 14 13 14 14 17 13 13 9 11 13 13 17 21 8 10 27 27 11 9 21 9 3 10 29 23 23 23 15 10 7 9 6 2 6 6 9 37 11 11 5 38 46 46 48 39 50 53 47 43
41 30 19 14 11 11 14 17 14 16 12 9 11 13 14 13 18 15 7 5 20 17 7 11 10 8 6 11 13 20 21 15 10 8 5 11 12 6 4 6 36 31 36 42 45 61 51 52 42 40 42 49 40 35
29 21 12 10 7 10 15 10 12 11 7 9 11 14 17 17 20 13 9 14 24 9 8 6 9 15 2 5 4 13 12 13 10 3 8 3 8 11 8 16 25 31 53 59 61 61 55 41 35 35 32 31 25 31
23 20 11 9 6 13 8 8 9 7 6 8 11 16 12 4 4 6 12 3 17 12 8 5 5 7 10 3 4 9 7 2 2 5 5 7 7 10 7 19 33 29 29 38 44 45 38 38 35 33 29 25 25 27
22 16 12 8 11 12 10 12 10 3 6 8 8 7 4 3 5 6 3 3 10 9 9 6 9 7 8 9 5 4 2 5 6 5 6 7 5 14 27 31 31 33 32 14 30 39 33 36 31 30 29 25 24 23
25 24 22 19 21 16 17 14 13 11 10 10 10 7 7 7 4 4 4 5 5 5 10 13 12 6 6 3 3 5 4 1 7 4 7 6 4 8 24 24 22 25 28 35 34 30 28 26 29 30 30 29 27 27
23 23 19 12 11 16 15 13 12 14 13 15 10 9 8 4 3 2 4 6 7 5 7 6 7 12 8 5 2 5 3 4 7 5 8 5 2 19 18 20 22 24 27 29 28 27 28 27 26 26 27 26 24 23
28 25 22 17 14 16 11 20 18 13 13 7 10 8 8 5 11 6 9 7 7 10 8 16 7 9 8 10 7 8 10 4 4 7 6 4 6 16 20 20 27 31 34 34 36 34 27 24 22 22 20 20 21 22
28 24 21 17 18 15 21 22 21 21 10 8 9 9 4 4 5 2 4 6 15 18 35 19 9 9 11 8 5 8 5 5 8 4 6 3 13 12 21 23 27 31 33 33 32 29 29 27 27 22 16 19 18 18
25 24 24 25 20 18 19 27 32 22 9 9 6 8 7 12 8 21 23 18 19 25 19 8 3 9 8 9 7 8 10 10 10 7 4 8 8 7 13 17 21 21 20 20 21 21 21 22 21 18 15 14 14 13
18 19 27 26 27 30 32 25 17 14 9 10 9 7 20 6 14 40 52 53 39 22 11 9 6 7 10 5 10 9 5 5 3 3 9 9 11 12 11 11 12 12 12 13 12 15 16 18 20 21 15 18 13 10
21 29 30 34 37 30 24 17 12 10 12 10 10 15 16 10 14 14 21 45 36 12 6 5 10 5 5 7 6 7 5 3 10 10 11 9 10 10 8 7 8 10 11 12 13 9 8 16 18 5 12 17 17 15
26 31 36 41 38 18 23 23 11 11 10 10 11 40 27 20 32 33 44 49 30 17 10 6 4 12 7 6 5 4 8 11 13 15 10 13 14 13 10 8 11 12 13 8 12 12 14 15 20 12 1 7 12 16
28 31 35 38 34 18 12 13 13 11 9 15 25 36 24 29 29 31 41 39 26 20 7 8 8 6 5 6 5 9 13 16 17 15 4 7 10 13 13 14 15 15 13 13 14 15 18 15 12 13 13 13 14 18
24 28 33 34 28 11 8 8 10 7 13 17 24 33 13 20 26 30 32 39 27 10 15 8 4 4 6 8 8 7 11 13 20 16 2 1 6 15 13 10 14 15 11 11 13 19 25 13 8 11 13 8 14 18
26 31 32 28 12 15 8 10 7 8 11 12 26 24 12 19 20 30 31 34 19 11 7 9 10 8 8 11 16 18 18 15 16 11 13 11 11 19 17 18 10 8 9 12 14 20 13 5 6 6 8 15 15 15
29 29 24 16 9 10 7 14 10 13 7 14 15 20 10 11 16 19 30 14 8 9 7 10 17 18 15 13 11 10 8 7 4 7 12 16 19 18 21 16 13 11 12 15 18 19 13 9 10 13 19 17 17 19
19 20 12 10 7 10 5 15 8 12 7 20 14 7 7 11 17 24 9 9 7 11 13 12 16 17 17 19 16 13 10 15 17 17 10 9 7 11 6 5 7 9 11 14 16 17 19 21 21 22 22 24 25 26
10 9 10 11 13 10 11 12 11 11 12 9 6 7 7 12 21 10 5 11 11 20 16 14 17 15 11 11 10 12 13 13 8 7 6 1 4 5 6 0 6 11 15 20 25 31 36 38 37 35 34 31 29 28
5 7 6 6 5 8 7 7 7 6 4 3 5 4 7 12 6 6 5 11 7 15 19 20 21 22 22 27 27 24 22 18 10 14 18 15 9 5 2 6 12 18 24 33 42 46 40 32 26 25 25 28 29 27
7 3 2 1 1 1 2 6 4 4 4 2 2 3 5 4 6 6 6 11 17 23 16 19 24 28 33 32 34 33 31 29 25 22 19 15 7 10 11 13 19 24 37 45 44 37 20 19 22 25 25 20 18 18
7 5 4 5 4 4 6 7 6 3 4 3 2 1 2 3 3 7 8 8 8 16 22 23 24 23 24 27 29 31 33 36 30 23 20 13 13 14 17 22 27 34 38 36 29 18 23 27 28 25 21 21 21 23
7 6 7 4 8 9 5 4 4 6 6 6 8 2 3 3 3 14 10 11 5 2 4 16 18 22 25 29 37 43 48 40 29 22 16 15 18 22 25 28 32 31 32 27 19 24 31 33 33 31 29 28 26 24
7 7 7 8 8 9 10 8 6 4 8 12 5 4 8 14 29 23 24 27 28 23 23 21 23 24 31 39 47 53 48 36 24 21 21 25 31 28 27 30 29 30 28 26 28 31 32 33 34 33 30 26 22 18
5 12 7 5 2 3 8 4 11 17 16 18 40 54 62 68 61 48 43 32 28 27 28 29 33 41 50 57 61 50 31 24 28 31 32 32 32 29 32 37 37 32 28 29 30 31 32 29 28 27 27 28 28 30
13 13 7 2 1 0 5 6 17 26 23 34 39 55 42 29 49 56 55 46 32 27 30 37 43 51 58 58 50 37 30 29 29 32 35 39 42 41 40 37 36 34 32 27 25 26 27 31 34 35 35 37 38 39
14 12 10 7 7 9 13 10 13 16 16 28 36 25 24 19 22 19 31 43 27 21 27 37 47 50 45 37 34 32 31 38 44 47 46 41 35 31 29 28 27 24 24 26 26 29 32 33 35 37 39 39 36 35
12 12 8 8 9 9 7 3 5 11 18 11 13 6 7 9 9 2 10 22 22 20 27 36 43 44 45 43 39 37 39 39 34 33 33 35 37 37 35 31 29 29 30 33 34 35 37 38 36 33 31 30 30 31
Wind_Direction_500mb
305 303 300 299 297 296 299 308 293 295 289 288 276 275 278 263 260 262 268 273 250 259 273 274 266 265 269 281 262 326 331 315 333 343 296 259 123 193 99 170 185 193 44 284 281 10 111 358 13 163 187 98 81 77
305 304 304 303 299 296 296 303 298 292 295 275 281 276 263 268 265 254 255 281 239 257 262 267 277 270 261 247 270 279 283 298 285 303 292 280 30 51 163 146 52 174 178 161 111 275 290 346 359 85 130 91 91 83
309 306 303 301 301 294 298 294 298 284 294 290 270 271 263 269 262 261 266 270 266 279 288 274 272 284 265 248 242 227 250 230 338 341 269 271 286 119 101 60 117 11 237 108 142 300 331 15 68 81 80 81 79 74
315 308 306 302 297 291 298 306 296 280 294 271 288 275 273 272 264 262 268 278 243 270 275 288 308 293 271 267 242 226 230 266 310 298 237 245 231 102 197 170 109 239 356 139 77 198 96 73 72 81 90 84 75 65
320 311 300 303 292 291 297 300 291 287 291 264 282 275 271 278 264 274 278 273 249 227 291 288 307 289 231 231 214 209 227 242 265 272 246 220 238 36 269 120 38 333 206 152 193 204 131 148 111 116 99 89 81 71
320 313 302 296 293 289 312 314 298 302 289 266 270 278 281 303 284 308 296 264 215 210 275 291 314 306 333 241 215 204 244 258 252 282 284 308 26 62 51 66 354 339 333 284 203 109 103 109 114 103 94 91 85 78
328 325 304 290 282 304 302 311 291 306 292 270 274 288 299 294 288 274 278 113 167 185 258 299 298 292 346 164 185 214 215 227 223 264 277 24 355 41 55 43 331 14 87 97 102 113 88 93 89 95 88 84 77 75
336 343 334 313 290 307 314 305 299 312 286 279 288 299 301 294 295 297 285 227 188 248 264 276 275 314 221 227 203 171 180 206 228 281 108 118 20 30 48 343 23 62 94 99 101 101 100 99 93 77 74 63 54 46
346 349 325 319 318 343 357 4 342 319 289 306 301 310 313 351 4 329 21 130 222 241 285 256 283 288 336 238 174 167 166 149 34 65 20 88 14 49 334 323 24 51 96 105 97 95 95 81 63 50 43 33 23 16
6 19 38 38 44 39 21 9 6 36 8 350 341 337 356 359 341 302 293 209 193 226 233 247 267 269 336 1 11 69 145 163 64 301 45 76 57 41 16 44 47 60 79 120 88 55 55 56 49 42 38 31 20 1
50 48 53 61 47 42 29 44 58 41 37 20 357 324 335 324 303 257 264 212 200 256 217 247 248 269 328 4 267 212 193 95 92 265 93 82 68 350 21 53 46 49 57 63 65 61 49 41 32 22 16 11 357 343
35 36 36 49 29 36 57 58 30 25 14 347 331 326 326 315 300 312 256 270 207 251 233 243 282 239 282 288 240 344 88 41 94 170 87 90 30 358 20 41 54 53 56 59 53 48 37 30 21 11 6 5 9 10
43 40 40 48 50 76 67 30 38 19 334 355 353 332 346 359 41 24 358 338 325 320 336 309 308 331 321 5 44 29 34 54 123 42 69 73 15 26 29 43 51 51 50 52 51 48 41 35 22 15 21 15 7 0
40 36 35 48 61 83 44 47 14 13 25 12 0 354 11 354 6 298 278 257 290 290 312 311 310 24 356 19 65 50 305 47 97 70 81 101 41 50 62 65 70 58 56 57 53 46 42 39 33 33 32 20 17 15
36 28 44 64 56 33 11 355 351 2 15 30 360 7 359 322 348 308 311 303 352 340 356 321 354 34 6 33 14 47 42 21 31 45 72 50 26 67 67 60 62 58 62 63 60 52 43 34 26 25 28 22 19 29
46 64 49 31 9 357 349 351 358 15 22 28 28 328 321 334 1 7 14 2 5 345 357 7 14 40 49 37 52 0 51 59 67 40 13 13 42 77 78 70 60 50 44 39 36 27 26 30 28 31 30 27 17 30
49 41 17 1 350 350 3 9 9 33 38 21 318 326 330 295 271 308 343 357 2 18 29 8 44 4 308 53 45 16 38 33 51 60 54 67 85 91 90 61 37 7 359 1 1 354 1 356 347 355 42 33 35 35
34 18 4 359 2 15 16 19 20 33 31 9 343 354 358 4 11 24 14 14 12 14 20 60 50 35 40 38 41 360 38 37 33 29 53 50 75 81 73 37 13 8 356 12 7 7 9 9 9 356 269 345 354 349
4 3 1 1 3 13 19 26 21 25 0 355 356 6 16 15 21 12 11 9 20 30 52 54 62 43 42 44 83 44 32 19 2 4 36 59 73 52 37 21 4 358 1 353 355 357 357 346 354 15 359 332 336 342
345 349 348 352 2 11 26 31 18 2 3 335 353 351 353 3 1 5 9 13 23 39 41 45 51 73 67 58 40 14 354 353 354 359 83 93 28 22 18 344 350 348 333 333 351 327 336 346 6 355 342 335 334 340
336 342 347 354 9 33 37 9 17 0 336 334 346 348 328 348 7 9 4 9 36 36 43 67 63 41 352 325 325 322 328 329 332 329 337 347 353 14 11 360 6 352 339 341 328 342 317 286 279 261 272 298 308 317
329 340 343 354 12 17 36 11 331 332 327 323 341 354 9 358 346 4 343 19 42 27 26 346 331 327 323 327 326 326 333 338 9 3 355 348 348 7 14 21 27 39 33 17 355 352 357 347 314 287 295 300 306 309
337 346 351 354 348 10 9 0 15 5 19 335 355 28 13 355 339 346 18 9 355 4 2 36 45 41 47 43 42 45 20 344 334 334 319 298 275 304 349 53 74 58 51 41 26 10 1 352 340 333 326 315 308 306
357 356 7 16 14 354 359 2 1 359 1 17 4 348 348 329 348 14 359 338 24 70 65 29 32 17 4 355 10 18 4 357 0 352 11 23 235 216 221 243 31 16 11 359 348 345 342 338 332 324 321 324 329 329
13 19 4 358 8 8 350 328 343 13 357 333 358 336 340 357 28 13 336 314 356 333 339 348 3 18 28 36 37 34 15 0 359 7 4 14 356 210 232 347 350 356 351 343 343 340 335 328 321 327 336 339 339 339
28 338 84 282 331 310 270 311 324 317 324 311 222 299 335 358 42 338 275 334 26 48 50 49 51 67 58 59 47 36 28 21 8 355 352 349 349 314 325 339 345 345 344 344 339 337 331 330 333 335 336 335 328 327
352 346 302 251 247 259 278 260 282 298 300 271 223 243 331 46 59 264 298 344 28 34 36 45 71 69 61 46 34 21 11 5 1 343 328 318 326 327 335 338 340 338 342 344 339 329 328 329 327 325 316 319 317 323
257 254 246 229 215 232 262 240 225 226 230 187 143 57 59 16 340 340 335 346 20 343 71 98 75 56 40 29 18 12 7 2 356 354 336 331 329 328 328 326 325 327 335 334 314 318 325 330 326 321 319 313 310 300
269 289 241 258 227 217 224 228 254 272 167 170 149 71 32 42 19 55 68 84 95 94 80 63 47 32 24 20 13 5 0 357 358 0 352 342 338 337 314 308 313 320 319 312 315 322 330 332 329 327 325 321 318 304
289 325 250 285 232 344 11 32 76 91 88 71 101 94 77 65 68 76 75 71 55 44 41 32 22 13 9 2 360 1 354 345 349 349 345 342 335 324 318 319 317 314 309 309 309 310 314 316 320 325 329 329 326 318
316 325 297 338 240 172 346 69 120 118 123 112 106 106 103 83 59 59 53 43 31 19 6 6 5 4 2 357 355 350 347 345 342 339 336 333 329 324 321 318 318 316 313 312 314 319 327 330 332 333 334 335 333 330
328 348 320 319 331 323 329 158 153 116 110 64 52 50 61 42 12 11 16 12 21 4 357 359 0 0 356 348 341 343 338 334 334 339 343 346 348 348 346 343 336 329 323 322 324 328 331 334 334 334 332 331 330 331
311 324 319 315 312 355 22 227 90 77 58 56 34 43 135 161 194 227 307 332 347 352 356 356 354 349 342 339 340 342 345 345 345 350 356 355 352 348 344 339 333 332 332 331 330 328 328 329 331 332 334 334 334 333
Wind_Speed_850mb
56 53 52 53 49 48 46 45 40 38 34 33 33 34 31 26 20 30 30 22 29 21 56 64 59 41 33 21 6 18 20 5 6 5 3 3 5 3 6 4 25 13 3 4 7 6 1 30 10 10 4 21 46 45
52 52 49 48 49 46 43 36 35 34 36 34 31 31 27 24 24 29 31 20 27 29 38 41 64 58 56 48 34 18 11 13 4 2 4 5 2 3 3 6 8 12 13 7 2 5 10 28 8 18 21 49 68 68
51 51 51 49 43 37 34 34 34 32 30 27 27 25 24 21 23 24 26 27 25 31 63 63 63 16 26 35 41 20 13 8 6 23 7 5 4 4 3 2 7 11 2 10 9 7 13 35 30 41 54 57 56 60
51 47 47 43 38 30 27 32 32 27 28 25 21 20 18 21 22 27 27 24 15 13 11 19 21 29 15 28 34 55 46 27 36 39 12 6 1 3 4 4 4 4 6 11 10 6 9 22 26 29 48 54 54 48
52 49 43 38 29 22 27 26 18 21 25 18 17 15 14 12 16 22 29 30 24 17 9 30 60 6 8 20 21 28 43 47 26 9 7 5 0 3 3 6 8 9 3 6 11 22 21 22 30 25 45 51 46 36
53 42 35 24 18 14 13 14 14 17 13 13 9 11 13 13 17 21 8 10 27 27 11 9 21 9 3 10 29 23 23 23 15 10 7 9 6 2 6 6 9 37 11 11 5 38 46 46 48 39 50 53 47 43
41 30 19 14 11 11 14 17 14 16 12 9 11 13 14 13 18 15 7 5 20 17 7 11 10 8 6 11 13 20 21 15 10 8 5 11 12 6 4 6 36 31 36 42 45 61 51 52 42 40 42 49 40 35
29 21 12 10 7 10 15 10 12 11 7 9 11 14 17 17 20 13 9 14 24 9 8 6 9 15 2 5 4 13 12 13 10 3 8 3 8 11 8 16 25 31 53 59 61 61 55 41 35 35 32 31 25 31
23 20 11 9 6 13 8 8 9 7 6 8 11 16 12 4 4 6 12 3 17 12 8 5 5 7 10 3 4 9 7 2 2 5 5 7 7 10 7 19 33 29 29 38 44 45 38 38 35 33 29 25 25 27
22 16 12 8 11 12 10 12 10 3 6 8 8 7 4 3 5 6 3 3 10 9 9 6 9 7 8 9 5 4 2 5 6 5 6 7 5 14 27 31 31 33 32 14 30 39 33 36 31 30 29 25 24 23
25 24 22 19 21 16 17 14 13 11 10 10 10 7 7 7 4 4 4 5 5 5 10 13 12 6 6 3 3 5 4 1 7 4 7 6 4 8 24 24 22 25 28 35 34 30 28 26 29 30 30 29 27 27
23 23 19 12 11 16 15 13 12 14 13 15 10 9 8 4 3 2 4 6 7 5 7 6 7 12 8 5 2 5 3 4 7 5 8 5 2 19 18 20 22 24 27 29 28 27 28 27 26 26 27 26 24 23
28 25 22 17 14 16 11 20 18 13 13 7 10 8 8 5 11 6 9 7 7 10 8 16 7 9 8 10 7 8 10 4 4 7 6 4 6 16 20 20 27 31 34 34 36 34 27 24 22 22 20 20 21 22
28 24 21 17 18 15 21 22 21 21 10 8 9 9 4 4 5 2 4 6 15 18 35 19 9 9 11 8 5 8 5 5 8 4 6 3 13 12 21 23 27 31 33 33 32 29 29 27 27 22 16 19 18 18
25 24 24 25 20 18 19 27 32 22 9 9 6 8 7 12 8 21 23 18 19 25 19 8 3 9 8 9 7 8 10 10 10 7 4 8 8 7 13 17 21 21 20 20 21 21 21 22 21 18 15 14 14 13
18 19 27 26 27 30 32 25 17 14 9 10 9 7 20 6 14 40 52 53 39 22 11 9 6 7 10 5 10 9 5 5 3 3 9 9 11 12 11 11 12 12 12 13 12 15 16 18 20 21 15 18 13 10
21 29 30 34 37 30 24 17 12 10 12 10 10 15 16 10 14 14 21 45 36 12 6 5 10 5 5 7 6 7 5 3 10 10 11 9 10 10 8 7 8 10 11 12 13 9 8 16 18 5 12 17 17 15
26 31 36 41 38 18 23 23 11 11 10 10 11 40 27 20 32 33 44 49 30 17 10 6 4 12 7 6 5 4 8 11 13 15 10 13 14 13 10 8 11 12 13 8 12 12 14 15 20 12 1 7 12 16
28 31 35 38 34 18 12 13 13 11 9 15 25 36 24 29 29 31 41 39 26 20 7 8 8 6 5 6 5 9 13 16 17 15 4 7 10 13 13 14 15 15 13 13 14 15 18 15 12 13 13 13 14 18
24 28 33 34 28 11 8 8 10 7 13 17 24 33 13 20 26 30 32 39 27 10 15 8 4 4 6 8 8 7 11 13 20 16 2 1 6 15 13 10 14 15 11 11 13 19 25 13 8 11 13 8 14 18
26 31 32 28 12 15 8 10 7 8 11 12 26 24 12 19 20 30 31 34 19 11 7 9 10 8 8 11 16 18 18 15 16 11 13 11 11 19 17 18 10 8 9 12 14 20 13 5 6 6 8 15 15 15
29 29 24 16 9 10 7 14 10 13 7 14 15 20 10 11 16 19 30 14 8 9 7 10 17 18 15 13 11 10 8 7 4 7 12 16 19 18 21 16 13 11 12 15 18 19 13 9 10 13 19 17 17 19
19 20 12 10 7 10 5 15 8 12 7 20 14 7 7 11 17 24 9 9 7 11 13 12 16 17 17 19 16 13 10 15 17 17 10 9 7 11 6 5 7 9 11 14 16 17 19 21 21 22 22 24 25 26
10 9 10 11 13 10 11 12 11 11 12 9 6 7 7 12 21 10 5 11 11 20 16 14 17 15 11 11 10 12 13 13 8 7 6 1 4 5 6 0 6 11 15 20 25 31 36 38 37 35 34 31 29 28
5 7 6 6 5 8 7 7 7 6 4 3 5 4 7 12 6 6 5 11 7 15 19 20 21 22 22 27 27 24 22 18 10 14 18 15 9 5 2 6 12 18 24 33 42 46 40 32 26 25 25 28 29 27
7 3 2 1 1 1 2 6 4 4 4 2 2 3 5 4 6 6 6 11 17 23 16 19 24 28 33 32 34 33 31 29 25 22 19 15 7 10 11 13 19 24 37 45 44 37 20 19 22 25 25 20 18 18
7 5 4 5 4 4 6 7 6 3 4 3 2 1 2 3 3 7 8 8 8 16 22 23 24 23 24 27 29 31 33 36 30 23 20 13 13 14 17 22 27 34 38 36 29 18 23 27 28 25 21 21 21 23
7 6 7 4 8 9 5 4 4 6 6 6 8 2 3 3 3 14 10 11 5 2 4 16 18 22 25 29 37 43 48 40 29 22 16 15 18 22 25 28 32 31 32 27 19 24 31 33 33 31 29 28 26 24
7 7 7 8 8 9 10 8 6 4 8 12 5 4 8 14 29 23 24 27 28 23 23 21 23 24 31 39 47 53 48 36 24 21 21 25 31 28 27 30 29 30 28 26 28 31 32 33 34 33 30 26 22 18
5 12 7 5 2 3 8 4 11 17 16 18 40 54 62 68 61 48 43 32 28 27 28 29 33 41 50 57 61 50 31 24 28 31 32 32 32 29 32 37 37 32 28 29 30 31 32 29 28 27 27 28 28 30
13 13 7 2 1 0 5 6 17 26 23 34 39 55 42 29 49 56 55 46 32 27 30 37 43 51 58 58 50 37 30 29 29 32 35 39 42 41 40 37 36 34 32 27 25 26 27 31 34 35 35 37 38 39
14 12 10 7 7 9 13 10 13 16 16 28 36 25 24 19 22 19 31 43 27 21 27 37 47 50 45 37 34 32 31 38 44 47 46 41 35 31 29 28 27 24 24 26 26 29 32 33 35 37 39 39 36 35
12 12 8 8 9 9 7 3 5 11 18 11 13 6 7 9 9 2 10 22 22 20 27 36 43 44 45 43 39 37 39 39 34 33 33 35 37 37 35 31 29 29 30 33 34 35 37 38 36 33 31 30 30 31
Wind_Direction_850mb
305 303 300 299 297 296 299 308 293 295 289 288 276 275 278 263 260 262 268 273 250 259 273 274 266 265 269 281 262 326 331 315 333 343 296 259 123 193 99 170 185 193 44 284 281 10 111 358 13 163 187 98 81 77
305 304 304 303 299 296 296 303 298 292 295 275 281 276 263 268 265 254 255 281 239 257 262 267 277 270 261 247 270 279 283 298 285 303 292 280 30 51 163 146 52 174 178 161 111 275 290 346 359 85 130 91 91 83
309 306 303 301 301 294 298 294 298 284 294 290 270 271 263 269 262 261 266 270 266 279 288 274 272 284 265 248 242 227 250 230 338 341 269 271 286 119 101 60 117 11 237 108 142 300 331 15 68 81 80 81 79 74
315 308 306 302 297 291 298 306 296 280 294 271 288 275 273 272 264 262 268 278 243 270 275 288 308 293 271 267 242 226 230 266 310 298 237 245 231 102 197 170 109 239 356 139 77 198 96 73 72 81 90 84 75 65
320 311 300 303 292 291 297 300 291 287 291 264 282 275 271 278 264 274 278 273 249 227 291 288 307 289 231 231 214 209 227 242 265 272 246 220 238 36 269 120 38 333 206 152 193 204 131 148 111 116 99 89 81 71
320 313 302 296 293 289 312 314 298 302 289 266 270 278 281 303 284 308 296 264 215 210 275 291 314 306 333 241 215 204 244 258 252 282 284 308 26 62 51 66 354 339 333 284 203 109 103 109 114 103 94 91 85 78
328 325 304 290 282 304 302 311 291 306 292 270 274 288 299 294 288 274 278 113 167 185 258 299 298 292 346 164 185 214 215 227 223 264 277 24 355 41 55 43 331 14 87 97 102 113 88 93 89 95 88 84 77 75
336 343 334 313 290 307 314 305 299 312 286 279 288 299 301 294 295 297 285 227 188 248 264 276 275 314 221 227 203 171 180 206 228 281 108 118 20 30 48 343 23 62 94 99 101 101 100 99 93 77 74 63 54 46
346 349 325 319 318 343 357 4 342 319 289 306 301 310 313 351 4 329 21 130 222 241 285 256 283 288 336 238 174 167 166 149 34 65 20 88 14 49 334 323 24 51 96 105 97 95 95 81 63 50 43 33 23 16
6 19 38 38 44 39 21 9 6 36 8 350 341 337 356 359 341 302 293 209 193 226 233 247 267 269 336 1 11 69 145 163 64 301 45 76 57 41 16 44 47 60 79 120 88 55 55 56 49 42 38 31 20 1
50 48 53 61 47 42 29 44 58 41 37 20 357 324 335 324 303 257 264 212 200 256 217 247 248 269 328 4 267 212 193 95 92 265 93 82 68 350 21 53 46 49 57 63 65 61 49 41 32 22 16 11 357 343
35 36 36 49 29 36 57 58 30 25 14 347 331 326 326 315 300 312 256 270 207 251 233 243 282 239 282 288 240 344 88 41 94 170 87 90 30 358 20 41 54 53 56 59 53 48 37 30 21 11 6 5 9 10
43 40 40 48 50 76 67 30 38 19 334 355 353 332 346 359 41 24 358 338 325 320 336 309 308 331 321 5 44 29 34 54 123 42 69 73 15 26 29 43 51 51 50 52 51 48 41 35 22 15 21 15 7 0
40 36 35 48 61 83 44 47 14 13 25 12 0 354 11 354 6 298 278 257 290 290 312 311 310 24 356 19 65 50 305 47 97 70 81 101 41 50 62 65 70 58 56 57 53 46 42 39 33 33 32 20 17 15
36 28 44 64 56 33 11 355 351 2 15 30 360 7 359 322 348 308 311 303 352 340 356 321 354 34 6 33 14 47 42 21 31 45 72 50 26 67 67 60 62 58 62 63 60 52 43 34 26 25 28 22 19 29
46 64 49 31 9 357 349 351 358 15 22 28 28 328 321 334 1 7 14 2 5 345 357 7 14 40 49 37 52 0 51 59 67 40 13 13 42 77 78 70 60 50 44 39 36 27 26 30 28 31 30 27 17 30
49 41 17 1 350 350 3 9 9 33 38 21 318 326 330 295 271 308 343 357 2 18 29 8 44 4 308 53 45 16 38 33 51 60 54 67 85 91 90 61 37 7 359 1 1 354 1 356 347 355 42 33 35 35
34 18 4 359 2 15 16 19 20 33 31 9 343 354 358 4 11 24 14 14 12 14 20 60 50 35 40 38 41 360 38 37 33 29 53 50 75 81 73 37 13 8 356 12 7 7 9 9 9 356 269 345 354 349
4 3 1 1 3 13 19 26 21 25 0 355 356 6 16 15 21 12 11 9 20 30 52 54 62 43 42 44 83 44 32 19 2 4 36 59 73 52 37 21 4 358 1 353 355 357 357 346 354 15 359 332 336 342
345 349 348 352 2 11 26 31 18 2 3 335 353 351 353 3 1 5 9 13 23 39 41 45 51 73 67 58 40 14 354 353 354 359 83 93 28 22 18 344 350 348 333 333 351 327 336 346 6 355 342 335 334 340
336 342 347 354 9 33 37 9 17 0 336 334 346 348 328 348 7 9 4 9 36 36 43 67 63 41 352 325 325 322 328 329 332 329 337 347 353 14 11 360 6 352 339 341 328 342 317 286 279 261 272 298 308 317
329 340 343 354 12 17 36 11 331 332 327 323 341 354 9 358 346 4 343 19 42 27 26 346 331 327 323 327 326 326 333 338 9 3 355 348 348 7 14 21 27 39 33 17 355 352 357 347 314 287 295 300 306 309
337 346 351 354 348 10 9 0 15 5 19 335 355 28 13 355 339 346 18 9 355 4 2 36 45 41 47 43 42 45 20 344 334 334 319 298 275 304 349 53 74 58 51 41 26 10 1 352 340 333 326 315 308 306
357 356 7 16 14 354 359 2 1 359 1 17 4 348 348 329 348 14 359 338 24 70 65 29 32 17 4 355 10 18 4 357 0 352 11 23 235 216 221 243 31 16 11 359 348 345 342 338 332 324 321 324 329 329
13 19 4 358 8 8 350 328 343 13 357 333 358 336 340 357 28 13 336 314 356 333 339 348 3 18 28 36 37 34 15 0 359 7 4 14 356 210 232 347 350 356 351 343 343 340 335 328 321 327 336 339 339 339
28 338 84 282 331 310 270 311 324 317 324 311 222 299 335 358 42 338 275 334 26 48 50 49 51 67 58 59 47 36 28 21 8 355 352 349 349 314 325 339 345 345 344 344 339 337 331 330 333 335 336 335 328 327
352 346 302 251 247 259 278 260 282 298 300 271 223 243 331 46 59 264 298 344 28 34 36 45 71 69 61 46 34 21 11 5 1 343 328 318 326 327 335 338 340 338 342 344 339 329 328 329 327 325 316 319 317 323
257 254 246 229 215 232 262 240 225 226 230 187 143 57 59 16 340 340 335 346 20 343 71 98 75 56 40 29 18 12 7 2 356 354 336 331 329 328 328 326 325 327 335 334 314 318 325 330 326 321 319 313 310 300
269 289 241 258 227 217 224 228 254 272 167 170 149 71 32 42 19 55 68 84 95 94 80 63 47 32 24 20 13 5 0 357 358 0 352 342 338 337 314 308 313 320 319 312 315 322 330 332 329 327 325 321 318 304
289 325 250 285 232 344 11 32 76 91 88 71 101 94 77 65 68 76 75 71 55 44 41 32 22 13 9 2 360 1 354 345 349 349 345 342 335 324 318 319 317 314 309 309 309 310 314 316 320 325 329 329 326 318
316 325 297 338 240 172 346 69 120 118 123 112 106 106 103 83 59 59 53 43 31 19 6 6 5 4 2 357 355 350 347 345 342 339 336 333 329 324 321 318 318 316 313 312 314 319 327 330 332 333 334 335 333 330
328 348 320 319 331 323 329 158 153 116 110 64 52 50 61 42 12 11 16 12 21 4 357 359 0 0 356 348 341 343 338 334 334 339 343 346 348 348 346 343 336 329 323 322 324 328 331 334 334 334 332 331 330 331
311 324 319 315 312 355 22 227 90 77 58 56 34 43 135 161 194 227 307 332 347 352 356 356 354 349 342 339 340 342 345 345 345 350 356 355 352 348 344 339 333 332 332 331 330 328 328 329 331 332 334 334 334 333